User: anonymous   Login
Location: Unspecified
(0.0000°N, 0.0000°E)
Time: 02:09:35
(UTC+00:00)
Language:

OBJECT AR - Orbit

View from above orbital plane
View from above orbital plane
View from above satellite
View from above satellite

Ground track
Ground track

The orbit is defined by the following mean orbital elements,

1 61774U          26145.60433955 +.00000000 +00000-0 +64575-3 0 00001
2 61774  97.2928  21.5444 0007105  33.0094 327.1604 15.57952877    05
Epoch (UTC): 25 May 2026 14:30:14
Eccentricity: 0.0007105
inclination: 97.2928°
perigee height: 389 km
apogee height: 398 km
right ascension of ascending node: 21.5444°
argument of perigee: 33.0094°
revolutions per day: 15.57952877
mean anomaly at epoch: 327.1604°

The dashed part of the orbit path shows where the satellite is in the earth's shadow,  

DLR